Regional Weather Roundup
Issued by NWS Midland/Odessa, TX

Skip options and go directly to product.
Home | Oldest Version | Next Version | Current Version | All | Text Only | Save Text | Print | Product List | Glossary On

Skip product version selection by date and time.   
328
ASUS44 KMAF 211502
RWRMAF
MIDLAND AREA WEATHER ROUNDUP
NATIONAL WEATHER SERVICE MIDLAND TX
900 AM CST FRI NOV 21 2014

...IN SOUTHWEST TEXAS AND SOUTHEAST NEW MEXICO...

CITY           SKY/WX    TMP DP  RH WIND       PRES   REMARKS
ALPINE         MOSUNNY   55  29  37 CALM      30.15R
ANDREWS        FAIR      42  36  78 CALM      30.05R
ARTESIA        NOT AVBL
BIG SPRING     CLOUDY    54  49  85 S8        30.09R
CARLSBAD       PTSUNNY   42  27  55 N6        30.05R WCI  38
DRYDEN           N/A     53  52  96 N7        30.06R
FORT STOCKTON  MOSUNNY   52  32  46 CALM      30.06R
GUAD PASS      NOT AVBL
HOBBS          SUNNY     45  28  53 CALM      30.06R
MARFA          MOSUNNY   46  34  61 CALM      30.12R
MIDLAND AIRPK  FOG       47  47 100 CALM      30.06S VSB 1/4
MIDLAND INTL   FOG       47  46  97 SE6       30.05S VSB<1/4
ODESSA         FOG       44  43  96 SE3       30.06R VSB<1/4
PECOS          MOSUNNY   40  31  71 CALM      30.05R
PRESIDIO       FAIR      52  36  55 CALM      30.06R
SEMINOLE       PTSUNNY   44  26  49 NW6       30.05S
SNYDER         CLOUDY    49  48  99 SW5       30.07R FOG
WINK           PTSUNNY   41  38  89 N5        30.04R WCI  38
$$
...OTHER STATIONS IN TEXAS...

CITY           SKY/WX    TMP DP  RH WIND       PRES   REMARKS
ABILENE        MOSUNNY   60  53  77 SW14      30.06R
AMARILLO       MOSUNNY   32  29  88 NW3       30.06R
AUSTIN         LGT RAIN  64  64 100 S6        30.10R FOG
BROWNSVILLE    CLOUDY    72  69  90 S7        30.08R
CORPUS CHRISTI CLOUDY    71  67  87 SE8       30.08R
DALLAS FTW     CLOUDY    59  59 100 SE9       30.11R FOG
DEL RIO        FOG       59  59 100 CALM      30.06R VSB<1/4
EL PASO        MOSUNNY   44  23  43 N3        30.05R
HOUSTON INT    CLOUDY    65  63  93 SE12      30.16R
LUBBOCK        PTSUNNY   38  32  79 N6        30.04R WCI  33
SAN ANGELO     PTSUNNY   62  54  74 S7        30.07R
SAN ANTONIO    DRZL/FOG  66  65  96 S8        30.10R VSB 1/2
WACO           FOG       61  61 100 SE7       30.12R VSB 1/2
WICHITA FALLS  NOT AVBL
$$
...OTHER LOCATIONS IN NEW MEXICO...

CITY           SKY/WX    TMP DP  RH WIND       PRES   REMARKS
ALAMAGORDO     MOSUNNY   41  18  38 CALM      30.05S
ALBUQUERQUE    PTSUNNY   32  13  45 NW5       30.08R WCI  27
CANNON AFB     PTSUNNY   38  28  69 N3        30.04R
CLOVIS         PTSUNNY   36  28  75 CALM      30.04R
HOLLOMAN AFB   MOSUNNY   41  16  36 CALM      30.04F
ROSWELL        SUNNY     40  23  50 N5        30.06R WCI  37
RUIDOSO        SUNNY     43  16  33 SW6       30.12S WCI  39
SANTA FE       MOSUNNY   32  18  56 N6        30.09R WCI  26
TRUTH OR CONSE SUNNY     38  19  46 NW6       30.07R WCI  33
TUCUMCARI      SUNNY     33  26  75 CALM      30.04R
$$

USA.gov is the U.S. government's official web portal to all federal, state and local government web resources and services.